Holdrege, NE

6:09 AM CDT on October 19, 2019 (GMT -0500)
Brewster

Weather History for KHDE - September, 2019

Change the Weather History Date:

Wednesday, September 18, 2019

  Actual Average Record
Temperature  
Mean Temperature 71 °F -  
Max Temperature 81 °F 78 °F 98 °F (1948)
Min Temperature 62 °F 50 °F 37 °F (2012)
Cooling Degree Days 6    
Growing Degree Days 21 (Base 50)    
Moisture  
Dew Point 60 °F    
Average Humidity 69    
Maximum Humidity 97    
Minimum Humidity 39    
Precipitation  
Precipitation 0.00 in - - ()
Sea Level Pressure  
Sea Level Pressure 29.93 in    
Wind  
Wind Speed 8 mph ()    
Max Wind Speed 17 mph    
Max Gust Speed 22 mph    
Visibility 10.0 miles    
Events      
Averages and records for this station are not official NWS values.
T = Trace of Precipitation, MM = Missing Value Source: Averaged Metar Reports

Daily Weather History Graph

Daily Weather History Graph

Search for Another Location

Airport or City:

Astronomy

Sep. 18, 2019 Rise Set
Actual Time 7:20 AM CDT 7:41 PM CDT
Civil Twilight 6:53 AM CDT 8:08 PM CDT
Nautical Twilight 6:21 AM CDT 8:40 PM CDT
Astronomical Twilight 5:48 AM CDT 9:13 PM CDT
Moon 10:15 PM CDT (9/18) 11:26 AM CDT (9/18)
Length of Visible Light 13h 15m
Length of Day
12h 20m
Waning Gibbous, 82% of the Moon is Illuminated
Sep 18
Waning Gibbous
Sep 21
Last Quarter
Sep 28
New
Oct 5
First Quarter
Oct 13
Full

Hourly Weather History & Observations

Time (CDT) Temp. Heat Index Dew Point Humidity Pressure Visibility Wind Dir Wind Speed Gust Speed Precip Events Conditions
12:15 AM 74.7 °F - 62.8 °F 66% 29.84 in 10.0 mi South 12.7 mph - N/A   Clear
12:35 AM 73.8 °F - 62.8 °F 68% 29.84 in 10.0 mi South 11.5 mph - N/A   Clear
12:55 AM 73.0 °F - 63.0 °F 71% 29.84 in 10.0 mi South 9.2 mph - N/A   Clear
1:15 AM 72.9 °F - 62.8 °F 71% 29.85 in 10.0 mi South 10.4 mph - N/A   Clear
1:35 AM 72.9 °F - 62.6 °F 70% 29.85 in 10.0 mi South 10.4 mph - N/A   Clear
1:55 AM 72.0 °F - 62.8 °F 73% 29.85 in 10.0 mi South 10.4 mph - N/A   Clear
2:15 AM 72.0 °F - 62.8 °F 73% 29.85 in 10.0 mi South 9.2 mph - N/A   Clear
2:35 AM 71.1 °F - 62.8 °F 75% 29.85 in 10.0 mi South 9.2 mph - N/A   Clear
2:55 AM 71.1 °F - 62.8 °F 75% 29.86 in 10.0 mi South 9.2 mph - N/A   Clear
3:15 AM 71.2 °F - 63.0 °F 75% 29.86 in 10.0 mi South 9.2 mph - N/A   Clear
3:35 AM 70.7 °F - 63.1 °F 77% 29.85 in 10.0 mi South 9.2 mph - N/A   Clear
3:55 AM 69.1 °F - 63.5 °F 82% 29.85 in 10.0 mi South 9.2 mph - N/A   Clear
4:15 AM 68.4 °F - 63.1 °F 83% 29.85 in 10.0 mi South 6.9 mph - N/A   Clear
4:35 AM 68.0 °F - 63.0 °F 84% 29.86 in 10.0 mi SSW 4.6 mph - N/A   Clear
4:55 AM 66.9 °F - 63.5 °F 89% 29.89 in 10.0 mi Calm Calm - N/A   Clear
5:15 AM 66.6 °F - 63.5 °F 90% 29.90 in 10.0 mi SSE 3.5 mph - N/A   Clear
5:55 AM 64.0 °F - 62.8 °F 96% 29.90 in 10.0 mi Calm Calm - N/A   Clear
6:15 AM 62.8 °F - 62.1 °F 97% 29.90 in 10.0 mi Calm Calm - N/A   Clear
6:35 AM 62.8 °F - 61.5 °F 96% 29.91 in 10.0 mi East 4.6 mph - N/A   Clear
6:55 AM 62.2 °F - 61.2 °F 96% 29.92 in 10.0 mi ESE 5.8 mph - N/A   Clear
7:15 AM 63.3 °F - 62.6 °F 97% 29.92 in 10.0 mi SE 8.1 mph - N/A   Clear
7:35 AM 64.0 °F - 62.4 °F 94% 29.92 in 10.0 mi SE 8.1 mph - N/A   Clear
7:55 AM 65.1 °F - 63.1 °F 93% 29.93 in 10.0 mi SE 5.8 mph - N/A   Clear
8:15 AM 66.2 °F - 63.5 °F 91% 29.93 in 10.0 mi SE 3.5 mph - N/A   Clear
8:35 AM 67.8 °F - 64.4 °F 89% 29.93 in 10.0 mi Calm Calm - N/A   Clear
8:55 AM 68.9 °F - 64.9 °F 87% 29.95 in 10.0 mi NW 6.9 mph - N/A   Clear
9:15 AM 70.7 °F - 64.9 °F 82% 29.96 in 10.0 mi NW 6.9 mph - N/A   Clear
9:35 AM 72.0 °F - 64.8 °F 78% 29.97 in 10.0 mi North 9.2 mph - N/A   Clear
9:55 AM 73.8 °F - 64.4 °F 72% 29.97 in 10.0 mi NNE 3.5 mph - N/A   Clear
10:15 AM 74.5 °F - 59.5 °F 60% 29.97 in 10.0 mi North 9.2 mph - N/A   Clear
10:35 AM 75.2 °F - 60.3 °F 60% 29.97 in 10.0 mi North 9.2 mph - N/A   Clear
10:55 AM 75.7 °F - 56.3 °F 51% 29.98 in 10.0 mi North 11.5 mph 18.4 mph N/A   Clear
11:15 AM 74.8 °F - 48.9 °F 40% 29.98 in 10.0 mi North 17.3 mph 20.7 mph N/A   Clear
11:35 AM 74.1 °F - 48.2 °F 40% 29.99 in 10.0 mi North 15.0 mph 21.9 mph N/A   Scattered Clouds
11:55 AM 75.0 °F - 48.2 °F 39% 29.99 in 10.0 mi NNE 17.3 mph 21.9 mph N/A   Scattered Clouds
12:15 PM 75.4 °F - 49.8 °F 41% 30.00 in 10.0 mi NNE 12.7 mph - N/A   Mostly Cloudy
12:35 PM 77.2 °F - 51.4 °F 41% 29.99 in 10.0 mi NE 17.3 mph - N/A   Mostly Cloudy
12:55 PM 74.7 °F - 49.6 °F 41% 30.00 in 10.0 mi NNE 13.8 mph 20.7 mph N/A   Mostly Cloudy
1:15 PM 74.7 °F - 51.6 °F 44% 30.00 in 10.0 mi NE 12.7 mph - N/A   Overcast
1:35 PM 77.4 °F - 53.6 °F 44% 29.99 in 10.0 mi NNE 13.8 mph 17.3 mph N/A   Overcast
1:55 PM 76.3 °F - 52.5 °F 43% 29.98 in 10.0 mi NNE 16.1 mph 19.6 mph N/A   Overcast
2:15 PM 75.4 °F - 53.4 °F 46% 29.98 in 10.0 mi NE 12.7 mph - N/A   Overcast
2:35 PM 75.9 °F - 54.0 °F 46% 29.98 in 10.0 mi NE 10.4 mph - N/A   Overcast
2:55 PM 77.9 °F - 55.2 °F 45% 29.98 in 10.0 mi NE 12.7 mph - N/A   Mostly Cloudy
3:15 PM 77.7 °F - 55.2 °F 46% 29.97 in 10.0 mi NE 12.7 mph - N/A   Mostly Cloudy
3:35 PM 79.0 °F - 57.4 °F 47% 29.97 in 10.0 mi NNE 10.4 mph - N/A   Scattered Clouds
3:55 PM 79.5 °F - 58.1 °F 48% 29.97 in 10.0 mi ENE 11.5 mph - N/A   Clear
4:15 PM 80.8 °F 81.4 °F 59.9 °F 49% 29.96 in 10.0 mi NE 10.4 mph - N/A   Clear
4:35 PM 80.6 °F 81.2 °F 59.9 °F 49% 29.96 in 10.0 mi NE 8.1 mph - N/A   Clear
4:55 PM 80.8 °F 81.8 °F 61.5 °F 52% 29.96 in 10.0 mi NE 8.1 mph - N/A   Clear
5:15 PM 80.8 °F 82.0 °F 62.8 °F 54% 29.95 in 10.0 mi NNE 6.9 mph - N/A   Clear
5:35 PM 80.2 °F 81.5 °F 63.0 °F 55% 29.94 in 10.0 mi ENE 8.1 mph - N/A   Clear
5:55 PM 80.2 °F 81.5 °F 62.8 °F 55% 29.93 in 10.0 mi NE 9.2 mph - N/A   Clear
6:15 PM 79.7 °F - 62.6 °F 56% 29.93 in 10.0 mi NE 8.1 mph - N/A   Clear
6:35 PM 78.6 °F - 62.8 °F 58% 29.93 in 10.0 mi NE 6.9 mph - N/A   Clear
6:55 PM 77.4 °F - 63.5 °F 62% 29.94 in 10.0 mi NE 4.6 mph - N/A   Clear
7:15 PM 75.4 °F - 64.6 °F 69% 29.93 in 10.0 mi NNE 4.6 mph - N/A   Clear
7:35 PM 73.2 °F - 62.6 °F 69% 29.93 in 10.0 mi NNE 6.9 mph - N/A   Clear
7:55 PM 71.1 °F - 62.2 °F 74% 29.94 in 10.0 mi NNE 5.8 mph - N/A   Clear
8:15 PM 69.4 °F - 62.6 °F 79% 29.94 in 10.0 mi NNE 5.8 mph - N/A   Clear
8:35 PM 68.0 °F - 62.8 °F 83% 29.95 in 10.0 mi NNE 4.6 mph - N/A   Clear
8:55 PM 68.0 °F - 62.1 °F 81% 29.95 in 10.0 mi NNE 5.8 mph - N/A   Clear
9:15 PM 67.5 °F - 61.5 °F 81% 29.95 in 10.0 mi NNE 5.8 mph - N/A   Clear
9:35 PM 66.2 °F - 61.3 °F 84% 29.96 in 10.0 mi NNE 5.8 mph - N/A   Clear
9:55 PM 66.0 °F - 61.3 °F 85% 29.96 in 10.0 mi NE 5.8 mph - N/A   Clear
10:15 PM 66.6 °F - 61.0 °F 82% 29.97 in 10.0 mi NE 4.6 mph - N/A   Clear
10:35 PM 66.6 °F - 60.8 °F 82% 29.96 in 10.0 mi NE 6.9 mph - N/A   Clear
10:55 PM 66.6 °F - 60.6 °F 81% 29.96 in 10.0 mi ENE 5.8 mph - N/A   Clear
11:15 PM 65.8 °F - 60.4 °F 83% 29.94 in 10.0 mi NE 3.5 mph - N/A   Clear
11:35 PM 65.3 °F - 61.0 °F 86% 29.95 in 10.0 mi Calm Calm - N/A   Clear
11:55 PM 64.4 °F - 60.8 °F 88% 29.94 in 10.0 mi Calm Calm - N/A   Clear